Zurück zum Katalog

STARLINK-38058

AktivKommunikationSSO
NORAD 69757·PAYLOAD·🇺🇸 United States

Gestartet Jul 2, 2026 von Vandenberg Space Force Base

Loading…

Nächste Überflüge (nächste 24 Stunden)

TLE

AktuellSource: CelesTrak SupGP

Epoche: Sep 15, 2026, 03:56 UTC

1 69757C 26150U   26258.16437500 -.00048757  00000+0 -15127-2 0  2585
2 69757  97.2851  97.1118 0001685  93.7317 295.9604 15.33480180    14

Verfolge STARLINK-38058 in Echtzeit mit AllMySat

Download on the App Store